Change the Weather History Date:

Thursday, October 11, 2012

  Actual Average Record
Temperature  
Mean Temperature 81 °F -  
Max Temperature 87 °F 87 °F 93 °F (1998)
Min Temperature 75 °F 73 °F 62 °F (2010)
Cooling Degree Days 16    
Growing Degree Days 31 (Base 50)    
Moisture  
Dew Point 75 °F    
Average Humidity 82    
Maximum Humidity 94    
Minimum Humidity 66    
Precipitation  
Precipitation 0.00 in - - ()
Sea Level Pressure  
Sea Level Pressure 30.00 in    
Wind  
Wind Speed 5 mph ()    
Max Wind Speed 10 mph    
Max Gust Speed -    
Visibility 7.0 miles    
Events      
Averages and records for this station are not official NWS values.
T = Trace of Precipitation, MM = Missing Value Source: Averaged Metar Reports

Daily Weather History Graph

Daily Weather History Graph

Search for Another Location

Airport or City:

Trip Planner

Search our weather history database for the weather conditions in past years. The results will help you decide how hot, cold, wet, or windy it might be!

Date:

Astronomy

Oct. 11, 2012 Rise Set
Actual Time 6:41 AM CDT 6:26 PM CDT
Civil Twilight 6:19 AM CDT 6:48 PM CDT
Nautical Twilight 5:53 AM CDT 7:14 PM CDT
Astronomical Twilight 5:27 AM CDT 7:39 PM CDT
Moon 2:49 AM CDT (10/11) 3:37 PM CDT (10/11)
Length of Visible Light 12h 28m
Length of Day
11h 44m
Waning Crescent, 18% of the Moon is Illuminated
Oct 11
Waning Crescent
Oct 15
New
Oct 21
First Quarter
Oct 29
Full
Nov 6
Last Quarter

Hourly Weather History & Observations

Time (CDT) Temp. Heat Index Dew Point Humidity Pressure Visibility Wind Dir Wind Speed Gust Speed Precip Events Conditions
12:44 AM 78.8 °F - 75.2 °F 89% 29.99 in 7.0 mi East 3.5 mph - N/A   Scattered Clouds
1:40 AM 78.8 °F - 75.2 °F 89% 29.98 in 7.0 mi ENE 4.6 mph - N/A   Scattered Clouds
2:45 AM 77.0 °F - 73.4 °F 89% 29.97 in 7.0 mi Calm Calm - N/A   Scattered Clouds
3:49 AM 75.2 °F - 73.4 °F 94% 29.95 in 7.0 mi NNW 4.6 mph - N/A   Scattered Clouds
4:48 AM 75.2 °F - 73.4 °F 94% 29.97 in 7.0 mi North 3.5 mph - N/A   Scattered Clouds
5:46 AM 75.2 °F - 73.4 °F 94% 29.98 in 7.0 mi Calm Calm - N/A   Scattered Clouds
6:45 AM 75.2 °F - 73.4 °F 94% 29.99 in 7.0 mi NE 2.3 mph - N/A   Scattered Clouds
7:50 AM 80.6 °F 85.4 °F 73.4 °F 79% 30.02 in 7.0 mi ENE 5.8 mph - N/A   Scattered Clouds
8:49 AM 84.2 °F 92.3 °F 75.2 °F 74% 30.05 in 7.0 mi East 6.9 mph - N/A   Scattered Clouds
9:46 AM 84.2 °F 92.3 °F 75.2 °F 74% 30.06 in 7.0 mi ESE 10.4 mph - N/A   Scattered Clouds
10:46 AM 86.0 °F 95.1 °F 75.2 °F 70% 30.05 in 7.0 mi ENE 6.9 mph - N/A   Scattered Clouds
11:52 AM 86.0 °F 96.9 °F 77.0 °F 74% 30.04 in 7.0 mi East 6.9 mph - N/A   Scattered Clouds
12:47 PM 87.8 °F 97.6 °F 75.2 °F 66% 30.02 in 7.0 mi East 8.1 mph - N/A   Scattered Clouds
1:55 PM 86.0 °F 95.1 °F 75.2 °F 70% 29.98 in 7.0 mi NE 10.4 mph - N/A   Scattered Clouds
2:42 PM 86.0 °F 95.1 °F 75.2 °F 70% 29.97 in 7.0 mi NE 9.2 mph - N/A   Mostly Cloudy
3:43 PM 84.2 °F 92.3 °F 75.2 °F 74% 29.98 in 7.0 mi NE 8.1 mph - N/A   Mostly Cloudy
4:41 PM 86.0 °F 95.1 °F 75.2 °F 70% 29.97 in 7.0 mi ENE 9.2 mph - N/A   Mostly Cloudy
5:42 PM 84.2 °F 92.3 °F 75.2 °F 74% 29.98 in 7.0 mi NE 5.8 mph - N/A   Mostly Cloudy
6:44 PM 82.4 °F 89.5 °F 75.2 °F 79% 29.98 in 7.0 mi NE 8.1 mph - N/A   Mostly Cloudy
7:44 PM 80.6 °F 86.2 °F 75.2 °F 84% 29.99 in 7.0 mi ENE 6.9 mph - N/A   Mostly Cloudy
8:41 PM 78.8 °F - 75.2 °F 89% 30.01 in 7.0 mi ENE 6.9 mph - N/A   Mostly Cloudy
9:48 PM 78.8 °F - 75.2 °F 89% 29.98 in 7.0 mi ENE 5.8 mph - N/A   Mostly Cloudy
10:47 PM 78.8 °F - 75.2 °F 89% 30.03 in 7.0 mi East 9.2 mph - N/A   Mostly Cloudy
11:46 PM 78.8 °F - 75.2 °F 89% 30.03 in 7.0 mi ENE 10.4 mph - N/A   Mostly Cloudy